Miscellaneous Local Product
Issued by NWS Hastings, NE

Home | Current Version | Previous Version | Text Only | Print | Product List | Glossary On
Versions: 1 2 3 4 5 6 7 8 9 10 11 12 13 14 15 16 17 18 19 20 21 22 23 24 25 26 27 28 29 30 31 32 33 34 35 36 37 38 39 40 41 42 43 44 45 46 47 48 49 50
000
AXUS43 KGID 240702
MISGRI

GID CWA HOURLY WEATHER ROUNDUP
NATIONAL WEATHER SERVICE HASTINGS NE
200 AM CDT THU JUL 24 2014

NOTE: "FAIR" INDICATES FEW OR NO CLOUDS BELOW 12,000 FEET WITH NO
SIGNIFICANT WEATHER AND/OR OBSTRUCTIONS TO VISIBILITY.

...SOUTH CENTRAL NEBRASKA...

CITY           SKY/WX    TMP DP  RH WIND       PRES   REMARKS
GRAND ISLAND   CLEAR     67  60  78 SE7       30.15F
HASTINGS       CLEAR     69  58  67 SE10      30.15F
KEARNEY        CLEAR     64  59  82 SE7       30.15F
ORD            CLEAR     66  59  78 SE6       30.13F
YORK           PTCLDY    66  63  88 SE6       30.15F
AURORA         CLEAR     65  62  92 SE5       30.15F
LEXINGTON      CLEAR     66  61  83 SE7       30.15S
HOLDREGE       CLEAR     66  60  81 SE9       30.15S
HEBRON         PTCLDY    64  58  82 CALM      30.15S

...NEBRASKA PANHANDLE...

CITY           SKY/WX    TMP DP  RH WIND       PRES   REMARKS
CHADRON        PTCLDY    74  65  73 S22G32    29.99F
ALLIANCE       CLEAR     68  64  87 S23G31    30.09F
SCOTTSBLUFF      N/A     70  64  81 MISG      30.08S
SIDNEY         MOCLDY    72  61  68 S13       30.15F

...WESTERN AND NORTH CENTRAL NEBRASKA...

CITY           SKY/WX    TMP DP  RH WIND       PRES   REMARKS
VALENTINE      CLEAR     69  60  73 S12       30.10S
AINSWORTH      CLEAR     67  58  72 SE15      30.11F
ONEILL         CLEAR     66  57  74 SE6       30.15F
BROKEN BOW     CLEAR     64  60  87 SE6       30.14F
IMPERIAL       CLEAR     67  62  84 SE10      30.16S
NORTH PLATTE   CLEAR     64  61  90 E9        30.14F
MCCOOK         CLEAR     67  63  87 E6        30.15F

...EASTERN NEBRASKA...

CITY           SKY/WX    TMP DP  RH WIND       PRES   REMARKS
NORFOLK        CLEAR     64  59  83 E6        30.15F
SO SIOUX CITY  CLEAR     64  61  90 E6        30.16S
TEKAMAH        CLEAR     64  59  83 CALM      30.15F
COLUMBUS       CLEAR     63  57  82 E5        30.15F
ALBION         CLEAR     62  57  86 CALM      30.15F
OMAHA EPPLEY   CLEAR     70  60  70 SE5       30.16S
OFFUTT AFB     CLEAR     65  64  96 CALM      30.16S
MILLARD        CLEAR     71  62  73 SE5       30.15F
LINCOLN        CLEAR     72  61  68 CALM      30.15F
NEBRASKA CITY  CLEAR     67  62  85 SE5       30.15F
BEATRICE       CLEAR     66  62  85 SE3       30.14F
FALLS CITY     CLEAR     66  63  90 E3        30.14F

...NORTHERN KANSAS...

CITY           SKY/WX    TMP DP  RH WIND       PRES   REMARKS
GOODLAND       CLEAR     69  65  86 S14       30.19S
HILL CITY      CLEAR     67  62  84 CALM      30.15F
HAYS           CLEAR     68  57  68 SE5       30.15S
RUSSELL        CLEAR     71  61  70 SE10      30.12F
CONCORDIA      PTCLDY    65  63  93 E5        30.13F
SALINA         CLEAR     73  63  70 E6        30.13S
TOPEKA         CLEAR     70  64  81 NE5       30.12F



USA.gov is the U.S. government's official web portal to all federal, state and local government web resources and services.